sat.trackr.live / text

‹ back to catalog

STARLINK-5302

NORAD 56556 · 2023-065BF

PAYLOAD ACTIVE UNKNOWN

§ Identity

Operator
Country
US
Launch date
2023-05-14
Launch site
AFETR
Launch vehicle
Mass (kg)
RCS (m²)

Purposes: comms

External: N2YO · Heavens-Above · Gunter

§ Orbital elements

Epoch: 2026-09-20T22:24:00.826560Z

Period
94.27 min
Inclination
43.0028°
Eccentricity
0.0000493
Mean motion
15.27580496 rev/d
Perigee alt
482.7 km
Apogee alt
483.4 km
Semi-major
6,861.2 km
B*
1.7567e-5
RAAN
200.8190°
Arg perigee
243.5314°
Mean anomaly
116.5487°
Rev number
18,633

§ Raw data

STARLINK-53021 56556U 23065BF  26263.93334290  .00000222  00000+0  17567-4 0  99902 56556  43.0028 200.8190 0000493 243.5314 116.5487 15.27580496186334

JSON: /api/v1/satellites/56556 · /tle

For live sub-satellite position, see the globe view (requires WebGL).

§ Visibility from observer

Set your observer location to see the next 7 days of passes ≥ 10°. The values pass through the URL so the page stays shareable.

No JS? Fill the form by hand. The geolocation button needs JavaScript.